FW1358 Weather Reports


Display with metric or nautical units.
time (UTC)temp
F
wind
direction
speed
MPH
gust
MPH
rain 1hr
in
rain 24hr
in
rain mn
in
humidity
%
barometer
mb
20260508163804 71 181 0.0 0.0 0.00 0.00 0.00 35 1016.8
20260508163304 71 181 0.0 0.0 0.00 0.00 0.00 35 1016.8
20260508160803 70 211 0.0 0.0 0.00 0.00 0.00 34 1017.1
20260508155306 69 211 0.0 0.0 0.00 0.00 0.00 37 1017.4
20260508153802 68 211 0.0 0.0 0.00 0.00 0.00 39 1017.6
20260508153302 67 211 0.0 0.0 0.00 0.00 0.00 43 1017.5
20260508152305 66 211 0.0 0.0 0.00 0.00 0.00 49 1017.6
20260508151303 65 211 0.0 0.0 0.00 0.00 0.00 44 1017.9
20260508150302 64 211 0.0 0.0 0.00 0.00 0.00 51 1018.1
20260508145802 63 211 0.0 0.0 0.00 0.00 0.00 53 1018.2
20260508144802 62 211 0.0 0.0 0.00 0.00 0.00 56 1018.3
20260508144303 61 211 0.0 0.0 0.00 0.00 0.00 59 1018.3
20260508142306 58 211 0.0 1.0 0.00 0.00 0.00 64 1018.3
20260508141802 58 211 0.0 1.0 0.00 0.00 0.00 67 1018.4
20260508140802 56 190 0.0 0.0 0.00 0.00 0.00 70 1018.4
20260508135803 55 190 0.0 0.0 0.00 0.00 0.00 73 1018.4
20260508131802 48 201 0.0 0.0 0.00 0.00 0.00 93 1018.4
20260508130302 47 201 0.0 0.0 0.00 0.00 0.00 93 1018.4
20260508123803 45 201 0.0 0.0 0.00 0.00 0.00 92 1018.3
20260508123302 45 201 0.0 0.0 0.00 0.00 0.00 92 1018.2
20260508122802 44 201 0.0 0.0 0.00 0.00 0.00 92 1018.2
20260508121803 44 201 0.0 0.0 0.00 0.00 0.00 91 1018.1
20260508121302 44 201 0.0 0.0 0.00 0.00 0.00 91 1018.0
20260508120803 44 201 0.0 0.0 0.00 0.00 0.00 90 1018.0
20260508120302 44 201 0.0 0.0 0.00 0.00 0.00 91 1018.0
20260508115802 44 201 0.0 0.0 0.00 0.00 0.00 91 1018.1
20260508114302 43 201 0.0 0.0 0.00 0.00 0.00 91 1017.7
20260508112803 43 201 0.0 0.0 0.00 0.00 0.00 90 1017.6
20260508112306 43 201 0.0 0.0 0.00 0.00 0.00 90 1017.6
20260508111802 43 201 0.0 0.0 0.00 0.00 0.00 90 1017.5
20260508111302 43 201 0.0 0.0 0.00 0.00 0.00 90 1017.4
20260508103802 44 201 0.0 0.0 0.00 0.00 0.00 90 1017.0
20260508103302 44 201 0.0 0.0 0.00 0.00 0.00 90 1017.0
20260508101302 44 201 0.0 0.0 0.00 0.00 0.00 89 1017.0
20260508093802 44 201 0.0 0.0 0.00 0.00 0.00 89 1016.8
20260508092312 45 201 0.0 0.0 0.00 0.00 0.00 88 1016.9
20260508091302 45 201 0.0 0.0 0.00 0.01 0.00 87 1016.8
20260508090303 45 201 0.0 0.0 0.00 0.01 0.00 86 1016.8
20260508085803 45 201 0.0 0.0 0.00 0.01 0.00 87 1016.7
20260508085306 45 201 0.0 0.0 0.00 0.01 0.00 87 1016.7
20260508084303 46 201 0.0 0.0 0.00 0.01 0.00 88 1016.6
20260508082306 46 201 0.0 0.0 0.00 0.01 0.00 88 1016.5
20260508081802 46 201 0.0 0.0 0.00 0.01 0.00 87 1016.6
20260508081303 46 201 0.0 0.0 0.00 0.01 0.00 86 1016.6
20260508075803 46 201 0.0 0.0 0.00 0.01 0.00 86 1016.8
20260508075308 47 201 0.0 0.0 0.00 0.01 0.00 87 1016.7
20260508073303 47 201 0.0 0.0 0.00 0.01 0.00 87 1016.6
20260508071303 47 201 0.0 0.0 0.00 0.01 0.00 86 1016.6
20260508064803 48 201 0.0 0.0 0.00 0.01 0.00 84 1016.9
20260508063803 48 201 0.0 0.0 0.00 0.01 0.00 85 1016.8
20260508063302 49 201 0.0 0.0 0.00 0.01 0.00 85 1016.8
20260508062306 49 201 0.0 0.0 0.00 0.01 0.00 86 1016.8
20260508055803 49 201 0.0 0.0 0.00 0.01 0.00 84 1017.0
20260508054803 49 201 0.0 0.0 0.00 0.01 0.00 84 1017.0
20260508054303 49 201 0.0 0.0 0.00 0.01 0.00 84 1016.9
20260508051303 51 201 0.0 0.0 0.00 0.01 0.00 80 1017.1
20260508050813 51 201 0.0 0.0 0.00 0.01 0.00 80 1017.0
20260508050303 51 201 0.0 0.0 0.00 0.01 0.00 79 1017.0
20260508044803 52 201 0.0 0.0 0.00 0.01 0.01 77 1016.9
20260508043803 52 201 0.0 0.0 0.00 0.01 0.01 76 1017.0
20260508041803 53 201 0.0 0.0 0.00 0.01 0.01 75 1017.0
20260508041303 53 201 0.0 0.0 0.00 0.01 0.01 73 1017.0
20260508040302 53 201 0.0 0.0 0.00 0.01 0.01 70 1017.1
20260508035306 54 201 0.0 0.0 0.00 0.01 0.01 69 1017.1
20260508034803 54 201 0.0 0.0 0.00 0.01 0.01 69 1017.0
20260508034304 54 201 0.0 0.0 0.00 0.01 0.01 70 1017.0
20260508032306 55 201 0.0 0.0 0.00 0.01 0.01 67 1017.0
20260508031302 55 201 0.0 0.0 0.00 0.01 0.01 67 1016.9
20260508030803 55 201 0.0 0.0 0.00 0.01 0.01 67 1016.9
20260508030302 56 201 0.0 0.0 0.00 0.01 0.01 66 1016.7
20260508025802 56 201 0.0 0.0 0.00 0.01 0.01 66 1016.7
20260508025305 56 201 0.0 0.0 0.00 0.01 0.01 67 1016.7
20260508023803 57 201 0.0 0.0 0.00 0.01 0.01 64 1016.8
20260508023303 57 201 0.0 0.0 0.00 0.01 0.01 62 1016.8
20260508022803 57 201 0.0 0.0 0.00 0.01 0.01 61 1016.7
20260508021802 58 201 0.0 0.0 0.00 0.01 0.01 61 1016.6
20260508015306 58 201 0.0 0.0 0.00 0.01 0.01 57 1016.6
20260508014303 59 201 0.0 0.0 0.00 0.01 0.01 57 1016.5
20260508011803 60 201 0.0 0.0 0.00 0.03 0.01 56 1015.9
20260508011302 60 201 0.0 0.0 0.00 0.03 0.01 57 1015.7
20260508010802 60 201 0.0 0.0 0.00 0.03 0.01 56 1015.7
20260508010302 61 201 0.0 0.0 0.00 0.03 0.01 54 1015.7
20260508005305 61 201 0.0 0.0 0.00 0.03 0.01 52 1015.6
20260508004803 61 201 0.0 0.0 0.00 0.03 0.01 54 1015.5
20260508003302 62 201 0.0 0.0 0.00 0.03 0.01 51 1015.5
20260508002803 62 201 0.0 0.0 0.00 0.03 0.01 51 1015.5
20260508001803 62 201 0.0 0.0 0.00 0.03 0.01 51 1015.4
20260508001303 63 201 0.0 0.0 0.00 0.03 0.01 52 1015.4
20260507235803 63 201 0.0 0.0 0.00 0.03 0.01 50 1015.1
20260507235306 63 201 0.0 0.0 0.00 0.03 0.01 49 1015.1
20260507234803 63 201 0.0 0.0 0.00 0.03 0.01 50 1015.0
20260507233303 64 201 0.0 0.0 0.00 0.03 0.01 48 1014.9
20260507232803 64 201 0.0 0.0 0.00 0.03 0.01 48 1014.9
20260507231803 65 201 0.0 0.0 0.00 0.03 0.01 46 1014.8
20260507231303 65 201 0.0 0.0 0.00 0.03 0.01 46 1014.8
20260507230802 65 201 0.0 0.0 0.00 0.03 0.01 47 1014.7
20260507225803 65 201 0.0 0.0 0.00 0.03 0.01 44 1014.9
20260507224803 65 201 0.0 0.0 0.00 0.03 0.01 49 1014.9
20260507223802 66 201 0.0 0.0 0.00 0.03 0.01 51 1015.1
20260507223303 66 201 0.0 0.0 0.00 0.03 0.01 51 1015.2
20260507222802 67 201 0.0 0.0 0.00 0.03 0.01 48 1015.2
20260507222306 67 201 0.0 0.0 0.00 0.03 0.01 42 1015.1
20260507220303 68 201 0.0 0.0 0.00 0.05 0.01 45 1015.1
20260507215803 68 201 0.0 0.0 0.00 0.05 0.01 43 1015.2
20260507215306 68 201 0.0 0.0 0.00 0.05 0.01 42 1015.2
20260507214303 69 201 0.0 0.0 0.00 0.05 0.01 46 1015.2
20260507213302 69 201 0.0 0.0 0.00 0.05 0.01 48 1015.1
20260507212803 69 201 0.0 0.0 0.00 0.05 0.01 46 1015.0
20260507211803 69 201 0.0 2.0 0.00 0.05 0.01 48 1015.1
20260507211302 69 201 0.0 2.0 0.00 0.05 0.01 49 1015.0
20260507210303 69 0 0.0 0.0 0.00 0.05 0.01 42 1014.9
20260507205306 69 0 0.0 0.0 0.00 0.05 0.01 48 1015.0
20260507204303 70 0 0.0 1.0 0.00 0.05 0.01 44 1014.9
20260507202802 70 241 0.0 0.0 0.00 0.05 0.01 43 1015.0
20260507201803 70 241 0.0 0.0 0.00 0.05 0.01 45 1015.0
20260507201303 70 241 0.0 0.0 0.00 0.05 0.01 43 1015.0
20260507200802 69 241 0.0 0.0 0.00 0.05 0.01 44 1015.1
20260507195802 70 241 0.0 0.0 0.00 0.05 0.01 43 1015.1
20260507195305 70 241 0.0 0.0 0.00 0.05 0.01 45 1015.1
20260507194303 70 241 0.0 0.0 0.00 0.05 0.01 44 1015.2
20260507192306 70 241 0.0 0.0 0.00 0.05 0.01 51 1015.1
20260507191803 70 241 0.0 0.0 0.00 0.05 0.01 44 1015.0
20260507191303 69 241 0.0 0.0 0.00 0.05 0.01 49 1015.3
20260507184802 69 265 0.0 0.0 0.00 0.06 0.01 51 1015.3
20260507182803 68 265 0.0 0.0 0.00 0.08 0.01 48 1015.3
20260507182306 68 265 0.0 1.0 0.00 0.08 0.01 52 1015.3
20260507181803 67 265 0.0 1.0 0.00 0.08 0.01 49 1015.2
20260507181303 67 309 0.0 0.0 0.00 0.08 0.01 56 1015.4
20260507180302 67 309 0.0 0.0 0.00 0.08 0.01 53 1015.4
20260507175802 66 309 0.0 0.0 0.00 0.08 0.01 51 1015.6
20260507174303 67 309 0.0 0.0 0.00 0.08 0.01 54 1015.9
20260507173803 66 309 0.0 0.0 0.00 0.08 0.01 50 1016.1
20260507173302 66 309 0.0 1.0 0.00 0.08 0.01 55 1016.0
20260507172803 66 309 0.0 1.0 0.00 0.08 0.01 53 1016.0
20260507172307 66 286 0.0 0.0 0.00 0.08 0.01 52 1015.9
20260507171803 65 286 0.0 0.0 0.00 0.08 0.01 61 1015.8
20260507171302 65 286 0.0 1.0 0.00 0.08 0.01 53 1015.7
20260507170303 66 289 0.0 1.0 0.00 0.08 0.01 53 1015.7
20260507165803 66 290 0.0 0.0 0.00 0.08 0.01 55 1016.1
20260507165306 66 290 0.0 0.0 0.00 0.08 0.01 56 1016.0
20260507164803 65 290 0.0 1.0 0.00 0.08 0.01 56 1016.0